Showing default

SNAP-3 ALICE, 40970

Orbit data source: Space-Track

SNAP-3 ALICE, 40970 is a payload satellite owned by SMDC (US) in LEO that was launched on Thu, 08 Oct 2015 UTC via an ATLAS V 401 launch vehicle from the Air Force Western Test Range (AFWTR). Payload-class satellites include a variety of spacecraft equipped with specific instruments for various scientific and technological missions. These include communications satellites like Starlink; space stations such as the ISS; scientific satellites like the Hubble; Earth observation satellites from companies like Planet Labs, Umbra, and HawkEye 360; GPS; miniature CubeSats for education and research; and military/defense satellites.

Not visible in the next 10 days
Identifier
40970, 2015-058G
Orbit
LEO
Country
Flag of USUS
Related business
Manufacturer
Duocomm Miltec
Mission
Operational Defense Communications
Bus & Motor
CUBESAT 3U, Unknown motor
Mass
5.3 kg wet, 5.3 kg dry
Launch date (UTC)
2015-10-08 (11 years ago)
Launch vehicle
ATLAS V 401
Launch site
Air Force Western Test Range (AFWTR)
Object type
Payload
Rocket body
Debris
Shape & HBR
Box + 8 Pan, 0.3 m
Radar Cross Section
0.085 m², Medium (>0.1 m² and < 1m²)

Expand to show TLE details & history
Last TLE update: 2 days ago

TLE from 2 days ago
0 SNAP-3 ALICE
1 40970U 15058G   26261.77257029  .09547151  76228-5  12533-2 0  9993
2 40970  64.7226 132.5987 0014296 258.2988 101.6590 16.34842781131638
Epoch: 2026-09-18T18:32Z
TLE epoch observation values (Epoch: 2026-09-18T18:32:30.073Z)
Latitude
-0.00001°
Longitude
-143.21727°
Altitude
183.595 km
Speed
7.796 km/s
True Right ascension
08h 50m 23s
True Declination
0° 00' 00"
Sunlit
Object was in daylight at epoch
Visualization orbit readout
Latitude
Unknown
Longitude
Unknown
Altitude
Unknown
Speed
Unknown
Apparent Right ascension
Unknown
Apparent Declination
Unknown
Sunlit
N/A
Visualization observer readout
Local Sidereal Time
23:35:56
Azimuth
Unknown
Elevation
Unknown
Doppler factor
Unknown
Orbital elements
Apogee altitude
187.413 km
Perigee altitude
168.668 km
Semi-major axis
6,556.178 km
Eccentricity
0.00143
Inclination
64.7226°
RAAN
132.5987°
Arg. of periapsis
258.2988°
True anomaly
101.81938°
Mean anomaly
101.659°
Eccentric anomaly
101.7392°
Mean motion
4.08853 °/min
Orbital period
88.05 mins
BSTAR
0.0012533
Loading maneuver chart data...
Computing Atmospheric mass density...
Loading historical data...
Loading historical data...
Loading historical data...
Loading historical data...
Loading historical data...
Loading historical data...
Loading historical data...

Documentation

Showing up to 5 results
|